THORAD DELTA 1 DEB, 8161

Orbit data source: Space-Track

THORAD DELTA 1 DEB, 8161 is space debris in LEO originally from a launch on Fri, 15 Nov 1974 UTC launched from the Air Force Western Test Range (AFWTR). Debris objects in space refer to the collection of defunct objects orbiting the Earth. Examples of debris include non-operational satellites, rocket bodies, and fragments generated from explosions, collisions, or faulty payload assembly.

Loading next visibility...
Identifier
8161, 1974-089AB
Orbit
LEO
Country
Flag of USUS
Related business
Manufacturer
Unknown
Mission
Spacecraft
Bus & Motor
Unknown
Mass
Unknown
Launch date (UTC)
1974-11-15 (51 years ago)
Launch vehicle
Unknown
Launch site
Air Force Western Test Range (AFWTR)
Object type
Payload
Rocket body
Debris
Shape & HBR
Unknown shape, 0.1 m
Radar Cross Section
Small (<0.1 m²)

Expand to show TLE details & history
Last TLE update: 2 days ago

TLE from 2 days ago
0 THORAD DELTA 1 DEB
1 08161U 74089AB  25352.67021875  .00000043  00000-0  78179-3 0  9999
2 08161 101.2258  47.6891 0371368 116.4331   8.6489 11.99455774566047
Epoch: 2025-12-18T16:05Z
TLE epoch observation values (Epoch: 2025-12-18T16:05:06.900Z)
Latitude
52.84745°
Longitude
-86.00502°
Altitude
1,395.937 km
Speed
7.297 km/s
True Right ascension
16h 11m 11s
True Declination
52° 41' 43"
Sunlit
Object was in daylight at epoch
Visualization orbit readout
Latitude
Unknown
Longitude
Unknown
Altitude
Unknown
Speed
Unknown
Apparent Right ascension
Unknown
Apparent Declination
Unknown
Sunlit
N/A
Visualization observer readout
Local Sidereal Time
05:00:01
Azimuth
Unknown
Elevation
Unknown
Doppler factor
Unknown
Orbital elements
Apogee altitude
1,980.163 km
Perigee altitude
1,381.591 km
Semi-major axis
8,059.014 km
Eccentricity
0.03714
Inclination
101.2258°
RAAN
47.6891°
Arg. of periapsis
116.4331°
True anomaly
9.31955°
Mean anomaly
8.6489°
Eccentric anomaly
8.98106°
Mean motion
2.99999 °/min
Orbital period
120 mins
BSTAR
0.00078179
Loading maneuver chart data...
Computing Atmospheric mass density...
Loading historical data...
Loading historical data...
Loading historical data...
Loading historical data...
Loading historical data...
Loading historical data...
Loading historical data...

Documentation

Showing up to 5 results
|